Regional Weather Roundup
Issued by NWS Newport/Morehead, NC

Current Version | Previous Version | Graphics & Text | Print | Product List | Glossary On
Versions: 1 2 3 4 5 6 7 8 9 10 11 12 13 14 15 16 17 18 19 20 21 22 23 24 25 26 27 28 29 30 31 32 33 34 35 36 37 38 39 40 41 42 43 44 45 46 47 48 49 50
000 ASUS42 KMHX 010410 RWRMHX WEATHER ROUNDUP FOR EASTERN NORTH CAROLINA NATIONAL WEATHER SERVICE NEWPORT/MOREHEAD CITY NC 1200 AM EDT WED OCT 01 2014 NOTE: "FAIR" INDICATES FEW OR NO CLOUDS BELOW 12,000 FEET WITH NO SIGNIFICANT WEATHER AND/OR OBSTRUCTIONS TO VISIBILITY NCZ015>017-031-032-045>047-102-103-010500- NORTH COAST CITY SKY/WX TMP DP RH WIND PRES REMARKS EDENTON CLEAR 61 60 96 CALM 29.91S ELIZABETH CITY CLEAR 63 62 97 CALM 29.90S KITTY HAWK CLEAR 68 64 87 N6 29.88S MANTEO CLEAR 68 64 87 N8 29.89S $$ NCZ045>047-081-094-103-104-010500- CENTRAL COAST CITY SKY/WX TMP DP RH WIND PRES REMARKS FRISCO CLEAR 68 66 93 N8 29.87S SWANQUARTER N/A 64 N/A N/A N3 29.85S $$ NCZ095-097-098-100-101-010500- SOUTHERN COAST CITY SKY/WX TMP DP RH WIND PRES REMARKS BEAUFORT CLEAR 65 62 90 N7 29.89R CEDAR ISLAND N/A 70 N/A N/A N12 29.91S JACKSONVILLE CLEAR 67 64 90 N6 29.90R NEWPORT NOT AVBL PINEY ISLAND CLEAR 71 64 78 N7 29.88S HAZE WILMINGTON CLEAR 65 63 93 N6 29.90R $$ NCZ011>013-027>030-043-044-078>080-089-090>093-098-010500- COASTAL PLAIN CITY SKY/WX TMP DP RH WIND PRES REMARKS AHOSKIE CLEAR 59 58 97 CALM 29.93S FOG CLINTON CLEAR 64 64 99 CALM 29.92S ELIZABETHTOWN CLEAR 66 66 99 CALM 29.91S GOLDSBORO CLEAR 64 64 98 CALM 29.90S GREENVILLE FOG 63 63 100 CALM 29.93F VSB 1/4 HAVELOCK CLEAR 68 64 87 N8 29.90S KENANSVILLE CLEAR 63 63 100 CALM 29.93R FOG KINSTON CLEAR 63 62 97 CALM 29.92S FOG NEW BERN CLEAR 67 63 87 CALM 29.91S RICHLANDS CLEAR 64 61 88 CALM 29.91S ROANOKE RAPIDS NOT AVBL ROCKY MOUNT FOG 59 58 96 CALM 29.92S VSB 1/4 WASHINGTON CLEAR 62 61 97 CALM 29.91S WHITEVILLE CLEAR 64 63 95 CALM 29.90F $$ AMZ130-135-150-152-154-156-158-170-250-252-270-ANZ085-086-088-633-658-670-010500- MARINE OBSERVATIONS STATION/POSITION TIME TEMP WIND PRES WAVE SWELL AIR SEA DIR/SP/G HT/PER HT/PER (UTC) (F) (DEG/KT/KT) (MB) (FT/S) (FT/S) CHESAPEAKE LIGHT 0300 70 50/ 11/ 12 1013.1 BUOY 44014 0400 71 72 10/ 12/ 14 1011.2 2/14 2/14 DUCK 0400 71 73 20/ 11/ 12 1011.5 2E DUCK 0400 N/A 2/ 7 OREGON INLET 0400 69 73 350/ 8/ 12 1011.8 BUOY 44095 0400 73 N/A 3/ 6 20E OREGON INLET NOT AVBL HATTERAS CG 0400 71 76 10/ 13/ 14 1011.9 DIAMOND BUOY 0400 73 350/ 14/ 17 1010.9 4/ 6 2/ 8 CAPE LOOKOUT 0300 71 20/ 9/ 11 1011.4 BEAUFORT LAB 0400 68 75 20/ 5/ 7 1011.5 30 SE NEW RIVER 0400 75 80 20/ 14/ 16 1011.1 3/ 5 2/ 7 5 SE WRIGHTSVILL 0300 71 76 360/ 6/ 8 N/A BUOY 41002 0350 77 80 60/ 6/ 8 1008.8 3/ 8 3/ 8 BUOY 41004 0400 77 81 10/ 8/ 10 1011.5 3/ 6 3/ 6 $$

USA.gov is the U.S. government's official web portal to all federal, state and local government web resources and services.